Satellite: UARS
Catalog number: 21701
Epoch time:      06081.57709326
Element set:    0721
Inclination:      056.9761 deg
RA of node:       105.4804 deg
Eccentricity:    0.0111654
Arg of perigee:   045.7410 deg
Mean anomaly:     315.2752 deg
Mean motion:   15.42464558 rev/day
Decay rate:      6.903e-05 rev/day^2
Epoch rev:           79593
Checksum:              298

Satellite: PO-34
Catalog number: 25520
Epoch time:      06082.74010697
Element set:     422
Inclination:      028.4580 deg
RA of node:       242.7586 deg
Eccentricity:    0.0005491
Arg of perigee:   032.7795 deg
Mean anomaly:     327.3136 deg
Mean motion:   15.16641163 rev/day
Decay rate:       6.13e-06 rev/day^2
Epoch rev:           40906
Checksum:              290

Satellite: ISS
Catalog number: 25544
Epoch time:      06082.99877124
Element set:     589
Inclination:      051.6424 deg
RA of node:       265.8496 deg
Eccentricity:    0.0008836
Arg of perigee:   039.1069 deg
Mean anomaly:     099.1764 deg
Mean motion:   15.74575819 rev/day
Decay rate:     1.3482e-04 rev/day^2
Epoch rev:           41973
Checksum:              357

Satellite: OO-38
Catalog number: 26063
Epoch time:      06081.81113898
Element set:     574
Inclination:      100.1864 deg
RA of node:       357.3115 deg
Eccentricity:    0.0036857
Arg of perigee:   351.3637 deg
Mean anomaly:     008.6914 deg
Mean motion:   14.35757695 rev/day
Decay rate:        5.9e-07 rev/day^2
Epoch rev:           32227
Checksum:              321

Satellite: NO-45
Catalog number: 26932
Epoch time:      06081.81914008
Element set:     270
Inclination:      067.0560 deg
RA of node:       229.8301 deg
Eccentricity:    0.0008017
Arg of perigee:   282.0147 deg
Mean anomaly:     078.0049 deg
Mean motion:   14.29519097 rev/day
Decay rate:       -4.0e-07 rev/day^2
Epoch rev:           23362
Checksum:              282

Satellite: UWE-1
Catalog number: 28892
Epoch time:      06082.76513282
Element set:     404
Inclination:      098.1717 deg
RA of node:       342.3272 deg
Eccentricity:    0.0018548
Arg of perigee:   077.9751 deg
Mean anomaly:     282.3527 deg
Mean motion:   14.59319812 rev/day
Decay rate:       2.72e-06 rev/day^2
Epoch rev:            2151
Checksum:              308

Satellite: XI-V
Catalog number: 28895
Epoch time:      06081.73103857
Element set:     386
Inclination:      098.1733 deg
RA of node:       341.3595 deg
Eccentricity:    0.0019034
Arg of perigee:   082.1367 deg
Mean anomaly:     278.2003 deg
Mean motion:   14.59373882 rev/day
Decay rate:       1.13e-06 rev/day^2
Epoch rev:            2124
Checksum:              299

Satellite: NCUBE2
Catalog number: 28897
Epoch time:      06081.44320719
Element set:      44
Inclination:      098.1738 deg
RA of node:       341.0745 deg
Eccentricity:    0.0018618
Arg of perigee:   082.9872 deg
Mean anomaly:     277.3449 deg
Mean motion:   14.59526440 rev/day
Decay rate:       1.24e-06 rev/day^2
Epoch rev:            1347
Checksum:              316

Satellite: AO-54
Catalog number: 28933
Epoch time:      06082.59635754
Element set:      61
Inclination:      051.6422 deg
RA of node:       267.1797 deg
Eccentricity:    0.0007953
Arg of perigee:   063.6416 deg
Mean anomaly:     296.4962 deg
Mean motion:   15.78206353 rev/day
Decay rate:     5.1739e-04 rev/day^2
Epoch rev:             751
Checksum:              334

/EX




----
Via the keps mailing list at AMSAT.ORG courtesy of AMSAT-NA.
To unsubscribe, send "unsubscribe keps" to Majordomo@amsat.org

--- ViaMAIL!/WC v1.60d
 * Origin: Chowdanet (401-724-4410) telnet://chowdanet.com  (1:323/120)